www.pogodaiklimat.ru

Погода и климат >> Архив погоды >> Россия >> Хабаровский край >> Елабуга


ПОГОДА в Елабуге

  • Прогноз погоды в Елабуге
  • Монитор погоды в Елабуге

АРХИВ ПОГОДЫ в Елабуге

Время (UTC), дата Ветер
(напр.,м/с)
 
Видим.   Явления Облачность Т
(С)
Тd
(С)
f
(%)
Тe
(С)
Тes
(С)
Комфортность P
(гПа)
Po
(гПа)
Тmin
(С)
Tmax
(С)
R
(мм)
R24
(мм)
S
(см)
09 13.09 ЮВ 2 50 км 8/3 600 м
[Cb cap Ac trans Ci fib]
+17.5 +14.1 80 +18 +18 1009.8 1002.5 +21.9
12 13.09 Ю 3 50 км 9/3 600 м
[Cb cap Ac trans]
+15.9 +12.5 80 +15 +15 1008.1 1000.8
15 13.09 Ю 3 50 км 9/4 600 м
[Cb cap Ac trans]
+15.4 +12.1 81 +15 +15 1005.7 998.4
18 13.09 Ю 5
{12}
10 км слаб. ливневой дождь 10/10 700 м
[Cb cap]
+14.5 +13.0 91 +13 +13 1003.3 996.0
21 13.09 ЮВ 3
{15}
10 км слаб. ливневой дождь 10/10 720 м
[Cb cap]
+13.8 +12.6 92 +13 +13 1002.1 994.8 +13.8 10
00 14.09 З 7-12
{14}
50 км {ливн. осадки} 8/8 720 м
[Cb cap]
+16.4 +13.7 84 +15 +15 1006.2 998.9
03 14.09 З 8-13
{14}
50 км ясно +17.9 +10.6 62 +17 +19 1006.5 999.2
06 14.09 З 7-12
{14}
50 км ясно +19.3 +10.5 57 +20 +21 1007.0 999.8
09 14.09 ЮЗ 4
{14}
50 км ясно +18.3 +10.5 60 +18 +18 1008.3 1001.0 +19.7 0.0
12 14.09 ЮВ 2 50 км ясно +13.3 +10.5 83 +13 +13 1010.7 1003.3
15 14.09 Ю 2 50 км 3/0
[Ci fib]
+12.0 +10.3 89 +11 +11 1011.7 1004.3
18 14.09 ЮВ 2 50 км ясно +10.7 +9.3 91 +9 +9 1011.8 1004.3
21 14.09 Ю 4 50 км ясно +8.9 +8.0 94 +6 +6 1013.1 1005.5 +8.7
00 15.09 Ю 4 50 км ясно +15.2 +12.4 83 +14 +18 1012.8 1005.5
03 15.09 Ю 2 50 км ясно +21.3 +13.3 60 +24 +34 комфорт 1011.8 1004.6
06 15.09 З 2 50 км 3/3 1000 м
[Cu med, cong Ci fib]
+21.2 +14.5 66 +24 +28 комфорт 1010.6 1003.4
09 15.09 Ю 2 50 км 1/1 1000 м
[Sc diur, vesp]
+18.2 +12.7 70 +19 +19 1009.8 1002.5 +22.0
12 15.09 Ю 2 50 км ясно +14.3 +11.7 84 +14 +14 1009.4 1002.1
15 15.09 Ю 4 50 км ясно +12.4 +10.0 85 +10 +10 1009.1 1001.7
18 15.09 Ю 5 50 км 8/0
[Ac trans]
+11.4 +9.2 86 +9 +9 1007.9 1000.5
21 15.09 Ю 2 20 км 10/5 600 м
[Cb cap Ac trans Ci fib]
+10.5 +8.8 89 +9 +9 1008.4 1000.9 +10.0
00 16.09 Ю 2 20 км в посл. час ливневой дождь 10/6 600 м
[Cb cap Ac trans Ci fib]
+12.1 +10.9 92 +11 +12 1009.8 1002.4
03 16.09 З 5
{10}
50 км 5/4 600 м
[Cb calv Ac trans]
+17.1 +11.7 71 +16 +19 1009.6 1002.3
06 16.09 З 6
{13}
50 км ясно +16.4 +2.9 40 +15 +17 1009.9 1002.6
09 16.09 З 6-12
{13}
50 км ясно +14.7 +2.2 43 +13 +13 1010.7 1003.3 +17.2 0.5
12 16.09 ЮЗ 3
{12}
50 км ясно +12.2 +3.5 55 +11 +11 1012.3 1004.9
15 16.09 ЮЗ 2 20 км ясно +9.9 +3.9 66 +9 +9 1013.4 1005.9
18 16.09 ЮЗ 4
{11}
50 км ясно +9.9 +4.0 67 +7 +7 1013.4 1005.9
21 16.09 З 4
{11}
50 км ясно +10.6 +2.9 59 +8 +8 1014.5 1007.0 +4.9
00 17.09 З 2 50 км ясно +12.8 +1.8 47 +12 +17 1015.7 1008.2
03 17.09 З 3 50 км ясно +15.5 +3.0 43 +15 +23 1015.1 1007.7
06 17.09 З 4 50 км ясно +17.1 +2.2 37 +17 +20 1013.5 1006.5
09 17.09 штиль 0 50 км 3/0
[Ci fib]
+12.9 +6.1 63 +13 +13 1012.9 1005.5 +17.1
12 17.09 Ю 2 50 км 8/0
[Ci fib]
+9.6 +5.4 75 +8 +8 1012.2 1004.7
15 17.09 ЮВ 3 50 км 8/0
[Ac trans Ci fib]
+8.5 +4.5 76 +6 +6 1010.0 1002.5
18 17.09 ЮВ 3 50 км 9/0
[Ac trans Ci fib]
+7.6 +3.8 77 +5 +5 1007.0 999.4
21 17.09 ЮВ 3 50 км 10/0
[Ac trans Ci fib]
+8.2 +2.8 69 +6 +6 1003.9 996.4 +7.2
00 18.09 Ю 5-11
{13}
20 км 10/10 720 м
[Cb cap]
+17.7 +5.7 45 +17 +17 1002.6 995.2
03 18.09 Ю 5-10
{12}
20 км в посл. час ливневой дождь 10/10 720 м
[Cb cap]
+7.9 +5.6 85 +4 +4 1004.3 996.8
06 18.09 ЮЗ 5-11
{13}
20 км слаб. ливневой дождь 10/8 720 м
[Cb cap Ci fib]
+6.5 +4.4 86 +2 +3 1005.1 997.5
09 18.09 ЮЗ 4
{12}
20 км слаб. ливневой дождь 10/9 700 м
[Cb cap Ci fib]
+6.2 +4.4 88 +2 +2 1005.0 997.5 +12.3 2
12 18.09 Ю 3
{11}
10 км слаб. ливневой дождь 10/10 720 м
[Cb cap]
+5.1 +4.2 94 +1 +1 1004.3 996.7
15 18.09 Ю 3 10 км слаб. ливневой дождь 9/9 720 м
[Cb cap]
+4.6 +3.7 94 +1 +1 1001.7 994.1
18 18.09 Ю 2 4000 м ливневой дождь 10/10 660 м
[Cb cap]
+4.2 +3.0 92 +1 +1 999.8 992.2
21 18.09 СЗ 3 10 км слаб. ливневой дождь 10/10 700 м
[Cb cap]
+5.0 +3.8 92 +1 +1 999.8 992.2 +4.1 13
00 19.09 СЗ 2 20 км {ливн. осадки} 10/10 800 м
[Cb cap]
+5.7 +4.1 89 +3 +3 1000.9 993.4
03 19.09 С 4 10 км слаб. ливневой дождь н/о +5.9 +4.6 91 +2 +2 1003.5 996.0
06 19.09 СЗ 5 50 км {ливн. осадки} 10/10 800 м
[Cb cap]
+9.1 +6.9 86 +6 +6 1005.1 997.6
09 19.09 СЗ 5
{10}
10 км слаб. ливневой дождь 9/9 720 м
[Cb cap]
+10.0 +7.4 84 +7 +7 1007.8 1000.3 +10.3 3
12 19.09 СЗ 3
{11}
10 км слаб. ливневой дождь 10/10 720 м
[Cb cap]
+11.4 +7.2 75 +10 +10 1009.2 1001.7
15 19.09 С 3 10 км слаб. ливневой дождь 10/10 720 м
[Cb cap]
+10.0 +5.6 74 +8 +8 1011.3 1003.8
18 19.09 С 1 20 км в посл. час ливневой дождь 9/9 750 м
[Cb cap]
+9.3 +5.5 77 +9 +9 1012.6 1005.0
21 19.09 СВ 1 20 км 1/1 1000 м
[Sc]
+6.5 +5.1 91 +5 +5 1014.4 1006.8 +5.9 0.8
00 20.09 СЗ 1 50 км ясно +11.6 +3.7 58 +12 +17 1016.6 1009.1
03 20.09 З 2 50 км 3/3 600 м
[Cb cap]
+13.5 +5.3 58 +13 +20 1017.9 1010.4
06 20.09 СЗ 2 50 км 3/3 600 м
[Cb cap]
+14.6 +6.2 57 +14 +18 1018.0 1010.6

 

Местоположение метеостанции Елабуга (Хабаровский край, Россия): широта 48.82 долгота 135.80 высота над уровнем моря 58 м.

В архиве по умолчанию представлена погода в Елабуге за последнюю неделю. Архивные данные за месяц целиком и за предыдущие месяцы, начиная с января 2011 года, Вы можете получить, выбрав интересующий диапазон дат из раскрывающегося списка и нажав кнопку "Ввод!".


*Определитесь, кто Вы:
робот инопланетянин человек

Внимание! Время в таблицах - всемирное. Для получения местного времени необходимо прибавить поправку, которая равна 10 ч.

Смотрите также архив погоды в соседних городах и на ближайших метеорологических станциях:

Погода в Князе-Волконском (Хабаровский край, Россия) (45 км)
Погода в Хабаровске 21 км (Хабаровский край, Россия) (51 км)
Погода в Хабаровске (Хабаровский край, Россия) (61 км)
Погода в Хабаровске Агромет (Хабаровский край, Россия) (62 км)
Погода в Хабаровске Аэр. Большой (Хабаровский край, Россия) (64 км)
Погода на Хабаровск Мосту (Хабаровский край, Россия) (66 км)
Погода в Хабаровске АМС (Хабаровский край, Россия) (67 км)
Погода в Литовко (Хабаровский край, Россия) (68 км)
Погода в Оборе (Хабаровский край, Россия) (83 км)
Погода в Троицком (Хабаровский край, Россия) (89 км)

Пояснения к столбцам:

Ветер - указаны скорость ветра в м/с - средняя за 10 мин, порывы в срок и между сроками (в фигурных скобках) и направление, откуда дует ветер: С - северный, СВ - северо-восточный, В - восточный, ЮВ - юго-восточный, Ю - южный, ЮЗ - юго-западный, З - западный, СЗ - северо-западный.
Видимость - горизонтальная дальность видимости в метрах или километрах. При видимости от 1 до 10 км при отсутствии осадков обычно наблюдается дымка, при ухудшении видимости до 1 км и менее - туман. В сухую погоду видимость может ухудшаться дымом, пылью или мглою.
Явления - указаны атмосферные явления, наблюдавшиеся в срок или в последний час перед сроком; фигурными скобками обозначены явления, наблюдавшиеся между сроками (за 1-3 часа до срока); квадратными скобками обозначены град или гололедные отложения с указанием их диаметра в мм.
Облачность - указаны через наклонную черту общая и нижняя облачность в баллах и высота нижней границы облаков в метрах; квадратными скобками обозначены формы облаков: Ci - перистые, Cs - перисто-слоистые, Cc - перисто-кучевые, Ac - высококучевые, As - высокослоистые, Sc - слоисто-кучевые, Ns - слоисто-дождевые, Cu - кучевые, Cb - кучево-дождевые. Подробнее классификацию облаков см. в Атласе облаков (PDF).
T - Температура воздуха - температура, измеренная на высоте 2 м над землей.
Td - Температура точки росы - температура, при понижении до которой содержащийся в воздухе водяной пар достигнет насыщения.
f - Относительная влажность воздуха - влажноcть воздуха, измеренная на высоте 2 м над землей.
Te - Эффективная температура - температура, которую ощущает одетый по сезону человек в тени. Характеристика душности погоды. При расчете учитывается влияние влажности воздуха и скорости ветра на теплоощущения человека.
Tes - Эффективная температура на солнце - температура, которую ощущает человек, с поправкой на солнечный нагрев. Характеристика знойности погоды. Зависит от высоты солнца над горизонтом, облачности и скорости ветра. Ночью, в пасмурную погоду, а также при ветре 12 м/с и более поправка равна нулю.
P - Атмосферное давление - приведенное к уровню моря атмосферное давление.
Po - Атмосферное давление - измеренное на уровне метеостанции атмосферное давление.
Tmin - Минимальная температура - минимум температуры воздуха на высоте 2 м над землей.
Tmax - Максимальная температура - максимум температуры воздуха на высоте 2 м над землей.
R - Количество осадков - Количество выпавших осадков за период времени, мм. При наведении курсора мыши на число - период времени, за который выпало указанное количество осадков.
R24 - Количество осадков - Количество выпавших осадков за 24 часа, мм.
S - Снежный покров - Высота снежного покрова, см. При наведении курсора мыши на число - состояние снежного покрова и степень покрытия местности в баллах.